Regional Weather Roundup
Issued by NWS

Home | Current Version | Previous Version | Text Only | Print | Product List | Glossary Off
Versions: 1 2 3 4 5 6 7 8 9 10 11 12 13 14 15 16 17 18 19 20 21 22 23 24 25 26 27

022
ASUS43 KDMX 211507
RWRIA

WEATHER ROUNDUP FOR IOWA
NATIONAL WEATHER SERVICE DES MOINES IA
1000 AM CDT THU MAY 21 2015

NOTE: "FAIR" INDICATES FEW OR NO CLOUDS BELOW 12,000 FEET WITH NO
SIGNIFICANT WEATHER AND/OR OBSTRUCTIONS TO VISIBILITY.

* - THESE STATIONS ARE NOT NWS STATIONS...THUS NOT UNDER NWS
QUALITY CONTROL.  THEY ALSO DO NOT REPORT WEATHER SUCH
AS PRECIPITATION OR FOG.

IAZ001>003-012>014-020>022-031>034-043>046-211600-
   NORTHWEST IOWA

CITY           SKY/WX    TMP DP  RH WIND       PRES   REMARKS
CARROLL *      SUNNY     59  43  55 NW16      30.19S
CHEROKEE *     SUNNY     57  45  62 NW13      30.19F
DENISON *      SUNNY     57  43  58 NW10G17   30.19F
LE MARS *      SUNNY     57  45  62 W14       30.22F
ORANGE CITY *  SUNNY     55  45  67 W17       30.19F
SHELDON *      SUNNY     57  41  54 W15       30.17S
SIOUX CITY     SUNNY     59  42  53 NW12      30.22F
SPENCER        SUNNY     60  42  51 W20G25    30.15F
STORM LAKE *   SUNNY     55  45  67 W17       30.19S
$$

IAZ055>058-069>071-079>083-090>094-211600-
   SOUTHWEST IOWA

CITY           SKY/WX    TMP DP  RH WIND       PRES   REMARKS
ATLANTIC *     SUNNY     57  45  62 W9        30.22F
AUDUBON *      SUNNY     57  45  62 NW7       30.21F
CLARINDA *     SUNNY     55  45  67 NW8       30.27F
COUNCIL BLFS * SUNNY     55  45  67 NW9       30.25F
CRESTON *      SUNNY     54  46  76 NW13G20   30.23F
HARLAN  *      SUNNY     55  48  76 NW12      30.26F
LAMONI         SUNNY     56  45  66 W10       30.23F
RED OAK *      SUNNY     55  45  67 W10       30.25F
SHENANDOAH *   SUNNY     55  46  71 W5        30.27F
$$

IAZ047>049-059>061-072>074-084-211600-
   CENTRAL IOWA

CITY           SKY/WX    TMP DP  RH WIND       PRES   REMARKS
AMES           SUNNY     57  44  62 W10       30.17F
ANKENY *       SUNNY     57  45  62 W12       30.18F
CHARITON *     SUNNY     55  46  71 W14       30.20F
DES MOINES     SUNNY     57  43  59 W12       30.18F
GRINNELL*      SUNNY     55  43  62 W12G21    30.17F
KNOXVILLE *    SUNNY     55  43  62 W14       30.17F
MARSHALLTOWN   SUNNY     55  45  68 W10       30.14F
PELLA *        SUNNY     57  48  72 W12       30.19F
PERRY *          N/A     57  45  62 NW12G18   30.18F
$$

IAZ004>006-015-016-023>025-035-036-211600-
   NORTH CENTRAL IOWA

CITY           SKY/WX    TMP DP  RH WIND       PRES   REMARKS
ALGONA *       SUNNY     61  43  51 NW14G20   30.13F
CLARION *      SUNNY     55  46  71 W13       30.14F
ESTHERVILLE    SUNNY     64  36  35 NW21      30.12F
FORT DODGE *   SUNNY     57  43  58 W10       30.16F
MASON CITY     SUNNY     59  42  53 W10       30.12F
FOREST CITY *  SUNNY     59  43  55 NW10      30.11F
IOWA FALLS *     N/A     55  45  67 W13       30.15F
$$

IAZ007>011-017>019-026>030-037>042-050>054-066-211600-
   NORTHEAST IOWA

CITY           SKY/WX    TMP DP  RH WIND       PRES   REMARKS
CEDAR RAPIDS   SUNNY     55  45  68 W9        30.14F
CHARLES CITY * SUNNY     57  43  58 W9        30.11F
CLINTON *      SUNNY     55  43  62 W18       30.17F
DECORAH *      SUNNY     55  43  62 VRB5G14   30.08F
DUBUQUE        SUNNY     53  43  68 W13       30.12F
MONTICELLO *   SUNNY     54  45  71 W12       30.13F
OELWEIN *      SUNNY     54  46  76 W10       30.12F
WATERLOO       SUNNY     56  43  61 W7        30.12F
$$

IAZ064-065-067-068-078-211600-
   EAST CENTRAL IOWA

CITY           SKY/WX    TMP DP  RH WIND       PRES   REMARKS
DAVENPORT      SUNNY     56  44  64 W15       30.16F
IOWA CITY      SUNNY     55  42  61 W16       30.17F
MT. PLEASANT * SUNNY     54  39  58 W13       30.19F
MUSCATINE *    SUNNY     57  41  54 W13       30.17F
QUAD CITIES    SUNNY     57  40  52 NW15      30.15F
$$

IAZ062-063-075>077-085>089-095>099-211600-
   SOUTHEAST IOWA

CITY           SKY/WX    TMP DP  RH WIND       PRES   REMARKS
BURLINGTON     SUNNY     55  41  59 NW9       30.19F
FAIRFIELD *    SUNNY     54  43  66 W8        30.19F
FORT MADISON *   N/A     54  45  71 NW9       30.20F
KEOKUK *       SUNNY     55  43  62 NW8G14    30.20F
OSKALOOSA *      N/A     55  43  62 W15       30.19F
CENTERVILLE *  SUNNY     55  55 100 W12       30.22F
OTTUMWA        SUNNY     56  43  61 W14       30.18F
WASHINGTON *   SUNNY     55  43  62 W12       30.18F
$$

ABBREVIATIONS USED IN REMARKS
   TC - TEMPERATURES IN CELSIUS
  WCI - WIND CHILL INDEX
   HX - HEAT INDEX
  VSB - VISIBILITY
$$




USA.gov is the U.S. government's official web portal to all federal, state and local government web resources and services.